This is the latest recevied weather packets stored in our database for station/object KD8OUK. If no packets are shown the sender has not sent any weather packets the latest 10 day(s).
| Time | Temp. | Humidity | Pressure | Rain* | Wind** | Luminosity | Snow |
|---|---|---|---|---|---|---|---|
| 1777974327 | 12.78° C | 99% | 1007.4 hPa | 3.05 mm | - | - | - |
| 1777974019 | 12.78° C | 99% | 1007.4 hPa | 2.79 mm | - | - | - |
| 1777973729 | 12.78° C | 99% | 1007.6 hPa | 2.54 mm | - | - | - |
| 1777973421 | 12.78° C | 99% | 1007.6 hPa | 2.54 mm | - | - | - |
| 1777973124 | 12.78° C | 99% | 1007.5 hPa | 2.29 mm | - | - | - |
| 1777972823 | 12.78° C | 99% | 1007.5 hPa | 2.03 mm | - | - | - |
| 1777972520 | 13.33° C | 98% | 1007.5 hPa | 1.52 mm | - | - | - |
| 1777972219 | 13.33° C | 97% | 1007.6 hPa | 1.02 mm | - | - | - |
| 1777971917 | 13.89° C | 95% | 1007.6 hPa | 0.25 mm | - | - | - |
| 1777971615 | 13.89° C | 93% | 1007.7 hPa | 0 mm | - | - | - |
| 1777971319 | 13.89° C | 91% | 1007.7 hPa | 0 mm | - | - | - |
| 1777971029 | 14.44° C | 90% | 1007.7 hPa | 0 mm | - | - | - |
| 1777970722 | 14.44° C | 88% | 1007.6 hPa | 0 mm | - | - | - |
| 1777970432 | 14.44° C | 88% | 1007.5 hPa | 0 mm | - | - | - |
| 1777970119 | 14.44° C | 88% | 1007.3 hPa | 0 mm | - | - | - |
| 1777969829 | 14.44° C | 88% | 1007.3 hPa | 0 mm | - | - | - |
| 1777969521 | 14.44° C | 88% | 1007.3 hPa | 0 mm | - | - | - |
| 1777969231 | 14.44° C | 88% | 1007.3 hPa | 0 mm | - | - | - |
| 1777968923 | 15° C | 87% | 1007.2 hPa | 0 mm | - | - | - |
| 1777968615 | 15° C | 87% | 1007.2 hPa | 0 mm | - | - | - |
| 1777968325 | 15° C | 87% | 1007.2 hPa | 0 mm | - | - | - |
| 1777968018 | 15° C | 86% | 1007.1 hPa | 0 mm | - | - | - |
| 1777967728 | 15.56° C | 85% | 1007.1 hPa | 0 mm | - | - | - |
| 1777967420 | 15.56° C | 84% | 1006.9 hPa | 0 mm | - | - | - |
| 1777967130 | 15.56° C | 83% | 1006.7 hPa | 0 mm | - | - | - |
* Rain latest hour (hover to see other rain measurements)
** Current wind speed in m/s (hover to see current wind gust speed)